Flag for Germany Weather past 2 weeks in Crailsheim, Baden-Württemberg, Germany

Now
30 °F

Chilly.


Feels Like: 24 °F
Forecast: 29 / 34 °F
Wind: 6 mph from West

Location: Niederstetten

Current Time: Dec 26, 2014 at 9:51:42 AM

Latest Report: Dec 26, 2014 at 9:20 AM


Visibility: N/A

Pressure: 30.33 "Hg

Humidity: 100%

Dew point: 30 °F

Location of CrailsheimLocation

Historic Weather in Crailsheim — Graph

°F

Crailsheim temperature yesterday

Maximum temperature yesterday: 43 °F (at 12:20 AM)
Minimum temperature yesterday: 34 °F (at 11:20 PM)
Average temperature yesterday: 37 °F

Past Weeks' High & Low Weather Summary

 TemperatureHumidityPressure
High52 °F (Dec 18, 9:20 PM)100% (Dec 11, 9:20 PM)30.45 "Hg (Dec 11, 9:20 PM)
Low30 °F (Dec 26, 8:20 AM)62% (Dec 13, 11:20 AM)29.68 "Hg (Dec 12, 2:20 PM)
Average41 °F89%30.04 "Hg
* Reported Dec 11 8:20 AM — Dec 26 8:20 AM, Crailsheim, Weather by CustomWeather, © 2014

Note: Actual official high and low records may vary slightly from our data, if they occured in-between our weather recording intervals... More about our weather records

Advertising

Crailsheim weather history for previous 24 hours

 ConditionsComfort  
Time TempWeatherWind HumidityBarometerVisibility
8:20 AM
Dec 26
30 °FChilly.8 mph100%30.33 "HgN/A
7:20 AM32 °FChilly.8 mph93%30.33 "HgN/A
6:20 AM32 °FChilly.9 mph93%30.33 "HgN/A
5:20 AM32 °FChilly.9 mph93%30.33 "HgN/A
4:20 AM32 °FChilly.7 mph93%30.30 "HgN/A
3:20 AM32 °FChilly.8 mph93%30.30 "HgN/A
2:20 AM32 °FChilly.7 mph100%30.30 "HgN/A
1:20 AM34 °FChilly.8 mph93%30.30 "HgN/A
12:20 AM34 °FChilly.9 mph93%30.30 "HgN/A
11:20 PM
Dec 25
34 °FChilly.10 mph100%30.30 "HgN/A
10:20 PM36 °FChilly.14 mph93%30.27 "HgN/A
9:20 PM36 °FChilly.15 mph87%30.27 "HgN/A
8:20 PM36 °FChilly.15 mph87%30.24 "HgN/A
7:20 PM36 °FChilly.16 mph87%30.24 "HgN/A
6:20 PM37 °FChilly.18 mph81%30.24 "HgN/A
5:20 PM37 °FChilly.17 mph81%30.24 "HgN/A
4:20 PM37 °FChilly.17 mph75%30.21 "HgN/A
3:20 PM37 °FChilly.15 mph75%30.24 "HgN/A
2:20 PM37 °FChilly.15 mph75%30.21 "HgN/A
1:20 PM37 °FChilly.13 mph81%30.24 "HgN/A
12:20 PM37 °FChilly.13 mph81%30.24 "HgN/A
11:20 AM37 °FChilly.13 mph81%30.24 "HgN/A
10:20 AM36 °FChilly.16 mph81%30.21 "HgN/A
9:20 AM36 °FChilly.14 mph81%30.21 "HgN/A
Weather by CustomWeather, © 2014

See weather overviewHow to use our weather pages